{"data":{"norad_id":59357,"intl_designator":"2024-060K","name":"STARLINK-31557","alt_names":[],"object_type":"PAYLOAD","status":"ACTIVE","operator":null,"country":"US","launch_date":"2024-03-31","launch_site_code":"AFETR","launch_vehicle":null,"mission":null,"orbit_class":"UNKNOWN","rcs_meters":null,"size_class":null,"mass_kg":null,"dimensions":null,"purposes":["comms"],"wikipedia_slug":null,"has_3d_model":false,"image_url":null,"decayed_at":null,"tle_current":{"epoch":"2026-05-25T03:38:11.277888Z","epoch_age_seconds":72706,"freshness":"FRESH","line1":"1 59357U 24060K   26145.15151942 -.00000372  00000+0 -39791-5 0  9994","line2":"2 59357  43.0027 183.9463 0001365 275.2662  84.8034 15.27576926121805","mean_motion":15.27576926,"eccentricity":0.0001365,"inclination_deg":43.0027,"raan_deg":183.9463,"arg_perigee_deg":275.2662,"mean_anomaly_deg":84.8034,"bstar":-3.9791e-6,"rev_number":12180,"period_min":94.266938410145,"perigee_km":482.12174755841,"apogee_km":483.9948538755,"semimajor_km":6861.195300717,"source":"CELESTRAK","updated_at":"2026-05-25T13:38:18.910062Z"}}}